This is the latest recevied weather packets stored in our database for station/object HF3P-11. If no packets are shown the sender has not sent any weather packets the latest 10 day(s).
| Time | Temp. | Humidity | Pressure | Rain* | Wind** | Luminosity | Snow |
|---|---|---|---|---|---|---|---|
| 1787905794 | 20.56° C | 62% | 1009.1 hPa | 0 mm | - | - | - |
| 1787905502 | 20° C | 62% | 1009.1 hPa | 0 mm | - | - | - |
| 1787905194 | 20° C | 62% | 1009.1 hPa | 0 mm | - | - | - |
| 1787904895 | 20° C | 62% | 1009.2 hPa | 0 mm | - | - | - |
| 1787904602 | 20° C | 63% | 1009.6 hPa | 0 mm | - | - | - |
| 1787904294 | 19.44° C | 63% | 1009.7 hPa | 0 mm | - | - | - |
| 1787904002 | 19.44° C | 63% | 1009.7 hPa | 0 mm | - | - | - |
| 1787903704 | 19.44° C | 62% | 1009.5 hPa | 0 mm | - | - | - |
| 1787903403 | 19.44° C | 63% | 1009.5 hPa | 0 mm | - | - | - |
| 1787903094 | 19.44° C | 62% | 1009.5 hPa | 0 mm | - | - | - |
| 1787902794 | 19.44° C | 64% | 1009.1 hPa | 0 mm | - | - | - |
| 1787902501 | 19.44° C | 64% | 1009 hPa | 0 mm | - | - | - |
| 1787902194 | 19.44° C | 65% | 1009 hPa | 0 mm | - | - | - |
| 1787901894 | 19.44° C | 64% | 1009.4 hPa | 0 mm | - | - | - |
| 1787901595 | 19.44° C | 64% | 1009.4 hPa | 0 mm | - | - | - |
| 1787901295 | 19.44° C | 64% | 1009.4 hPa | 0 mm | - | - | - |
| 1787900994 | 19.44° C | 63% | 1009.5 hPa | 0 mm | - | - | - |
| 1787900702 | 18.89° C | 64% | 1009.4 hPa | 0 mm | - | - | - |
| 1787900402 | 18.89° C | 64% | 1009.4 hPa | 0 mm | - | - | - |
| 1787900094 | 19.44° C | 64% | 1009.6 hPa | 0 mm | - | - | - |
| 1787899794 | 19.44° C | 63% | 1009.3 hPa | 0 mm | - | - | - |
| 1787899503 | 19.44° C | 66% | 1009.7 hPa | 0 mm | - | - | - |
| 1787899194 | 19.44° C | 67% | 1009.8 hPa | 0 mm | - | - | - |
| 1787898894 | 18.33° C | 68% | 1009.7 hPa | 0 mm | - | - | - |
| 1787898594 | 17.78° C | 71% | 1009.7 hPa | 0 mm | - | - | - |
* Rain latest hour (hover to see other rain measurements)
** Current wind speed in m/s (hover to see current wind gust speed)